Time,TemperatureF,DewpointF,PressureIn,WindDirection,WindDirectionDegrees,WindSpeedMPH,WindSpeedGustMPH,Humidity,HourlyPrecipIn,Conditions,Clouds,dailyrainin,SoftwareType,DateUTC
2013-04-14 00:00:00,35.4,29.9,29.96,SW,231,0.0,1.0,80,0.03,,---,0.09,VWS V14.01,2013-04-14 04:00:00,
2013-04-14 00:05:00,35.3,29.8,29.97,WSW,238,0.0,1.0,80,0.03,,---,0.09,VWS V14.01,2013-04-14 04:05:00,
2013-04-14 00:10:00,35.3,29.8,29.97,SW,236,0.0,0.0,80,0.03,,---,0.09,VWS V14.01,2013-04-14 04:10:00,
2013-04-14 00:15:00,35.2,29.7,29.97,SW,224,0.0,2.0,80,0.03,,---,0.09,VWS V14.01,2013-04-14 04:15:00,
2013-04-14 00:20:00,35.2,30.0,29.97,SW,225,0.0,0.0,81,0.03,,---,0.09,VWS V14.01,2013-04-14 04:20:00,
2013-04-14 00:25:00,35.1,29.9,29.97,SW,233,0.0,1.0,81,0.03,,---,0.09,VWS V14.01,2013-04-14 04:25:00,
2013-04-14 00:35:00,35.1,29.9,29.97,SW,225,0.0,1.0,81,0.03,,---,0.09,VWS V14.01,2013-04-14 04:35:00,
2013-04-14 00:40:00,35.0,29.8,29.97,SW,229,0.0,2.0,81,0.03,,---,0.09,VWS V14.01,2013-04-14 04:40:00,
2013-04-14 00:45:00,35.0,29.8,29.97,SW,228,0.0,1.0,81,0.03,,---,0.09,VWS V14.01,2013-04-14 04:45:00,
2013-04-14 00:50:00,34.9,30.0,29.97,SW,224,0.0,0.0,82,0.03,,---,0.09,VWS V14.01,2013-04-14 04:50:00,
2013-04-14 00:55:00,34.9,30.3,29.98,SW,224,0.0,1.0,83,0.03,,---,0.09,VWS V14.01,2013-04-14 04:55:00,
2013-04-14 01:00:00,34.7,30.1,29.98,SW,226,0.0,1.0,83,0.03,,---,0.09,VWS V14.01,2013-04-14 05:00:00,
2013-04-14 01:05:00,34.8,29.9,29.98,SW,224,0.0,2.0,82,0.03,,---,0.09,VWS V14.01,2013-04-14 05:05:00,
2013-04-14 01:10:00,34.8,30.2,29.98,SW,233,0.0,1.0,83,0.03,,---,0.00,VWS V14.01,2013-04-14 05:10:00,
2013-04-14 01:15:00,34.8,30.2,29.98,SW,226,0.0,1.0,83,0.03,,---,0.00,VWS V14.01,2013-04-14 05:15:00,
2013-04-14 01:20:00,34.8,30.2,29.98,SW,225,0.0,2.0,83,0.03,,---,0.00,VWS V14.01,2013-04-14 05:20:00,
2013-04-14 01:25:00,34.8,30.2,29.98,SW,225,1.0,3.0,83,0.03,,---,0.00,VWS V14.01,2013-04-14 05:25:00,
2013-04-14 01:30:00,34.9,30.3,29.98,SW,228,0.0,1.0,83,0.03,,---,0.00,VWS V14.01,2013-04-14 05:30:00,
2013-04-14 01:35:00,34.8,30.2,29.98,SW,228,0.0,1.0,83,0.03,,---,0.00,VWS V14.01,2013-04-14 05:35:00,
2013-04-14 01:40:00,34.8,30.2,29.98,NE,46,0.0,0.0,83,0.03,,---,0.00,VWS V14.01,2013-04-14 05:40:00,
2013-04-14 01:45:00,34.6,30.0,29.98,SW,233,0.0,1.0,83,0.03,,---,0.00,VWS V14.01,2013-04-14 05:45:00,
2013-04-14 01:50:00,34.4,29.8,29.98,SW,229,0.0,1.0,83,0.03,,---,0.00,VWS V14.01,2013-04-14 05:50:00,
2013-04-14 01:55:00,34.3,30.0,29.98,SW,231,0.0,2.0,84,0.03,,---,0.00,VWS V14.01,2013-04-14 05:55:00,
2013-04-14 02:00:00,34.1,29.8,29.99,WSW,245,0.0,1.0,84,0.03,,---,0.00,VWS V14.01,2013-04-14 06:00:00,
2013-04-14 02:05:00,33.9,29.6,29.98,SW,224,0.0,1.0,84,0.03,,---,0.00,VWS V14.01,2013-04-14 06:05:00,
2013-04-14 02:10:00,33.7,29.7,29.98,SW,224,0.0,0.0,85,0.03,,---,0.00,VWS V14.01,2013-04-14 06:10:00,
2013-04-14 02:15:00,33.3,29.3,29.99,SW,224,0.0,1.0,85,0.03,,---,0.00,VWS V14.01,2013-04-14 06:15:00,
2013-04-14 02:20:00,32.9,29.2,29.99,SW,224,0.0,0.0,86,0.03,,---,0.00,VWS V14.01,2013-04-14 06:20:00,
2013-04-14 02:25:00,32.4,28.7,29.99,SW,224,0.0,0.0,86,0.03,,---,0.00,VWS V14.01,2013-04-14 06:25:00,
2013-04-14 02:30:00,32.2,28.8,29.99,SW,224,0.0,0.0,87,0.03,,---,0.00,VWS V14.01,2013-04-14 06:30:00,
2013-04-14 02:35:00,32.0,28.9,29.99,SW,224,0.0,0.0,88,0.03,,---,0.00,VWS V14.01,2013-04-14 06:35:00,
2013-04-14 02:40:00,31.8,28.7,29.99,SW,224,0.0,0.0,88,0.03,,---,0.00,VWS V14.01,2013-04-14 06:40:00,
2013-04-14 02:45:00,31.5,28.4,29.99,SW,224,0.0,0.0,88,0.03,,---,0.00,VWS V14.01,2013-04-14 06:45:00,
2013-04-14 02:50:00,31.2,28.3,29.99,SW,224,0.0,0.0,89,0.03,,---,0.00,VWS V14.01,2013-04-14 06:50:00,
2013-04-14 02:55:00,30.8,28.0,29.99,SW,224,0.0,0.0,89,0.03,,---,0.00,VWS V14.01,2013-04-14 06:55:00,
2013-04-14 03:00:00,30.4,27.8,29.99,SW,224,0.0,0.0,90,0.03,,---,0.00,VWS V14.01,2013-04-14 07:00:00,
2013-04-14 03:05:00,30.3,28.0,29.99,SW,224,0.0,0.0,91,0.03,,---,0.00,VWS V14.01,2013-04-14 07:05:00,
2013-04-14 03:15:00,29.8,27.8,29.99,SW,224,0.0,0.0,92,0.03,,---,0.00,VWS V14.01,2013-04-14 07:15:00,
2013-04-14 03:20:00,29.7,27.7,29.99,SW,224,0.0,0.0,92,0.03,,---,0.00,VWS V14.01,2013-04-14 07:20:00,
2013-04-14 03:25:00,29.7,27.7,29.99,SW,224,0.0,0.0,92,0.03,,---,0.00,VWS V14.01,2013-04-14 07:25:00,
2013-04-14 03:35:00,29.0,27.0,29.99,SW,224,0.0,0.0,92,0.03,,---,0.00,VWS V14.01,2013-04-14 07:35:00,
2013-04-14 03:40:00,28.8,27.0,30.00,SW,224,0.0,0.0,93,0.03,,---,0.00,VWS V14.01,2013-04-14 07:40:00,
2013-04-14 03:45:00,28.8,27.3,30.00,SW,224,0.0,0.0,94,0.03,,---,0.00,VWS V14.01,2013-04-14 07:45:00,
2013-04-14 03:50:00,28.8,27.3,30.00,SW,224,0.0,0.0,94,0.03,,---,0.00,VWS V14.01,2013-04-14 07:50:00,
2013-04-14 03:55:00,28.7,26.9,30.00,SW,224,0.0,0.0,93,0.03,,---,0.00,VWS V14.01,2013-04-14 07:55:00,
2013-04-14 04:00:00,28.6,27.1,30.00,SW,224,0.0,0.0,94,0.03,,---,0.00,VWS V14.01,2013-04-14 08:00:00,
2013-04-14 04:05:00,28.6,27.1,30.00,SW,224,0.0,0.0,94,0.03,,---,0.00,VWS V14.01,2013-04-14 08:05:00,
2013-04-14 04:10:00,28.4,26.9,30.00,SW,224,0.0,0.0,94,0.03,,---,0.00,VWS V14.01,2013-04-14 08:10:00,
2013-04-14 04:15:00,28.1,26.6,30.00,SW,224,0.0,0.0,94,0.03,,---,0.00,VWS V14.01,2013-04-14 08:15:00,
2013-04-14 04:20:00,28.2,27.0,30.01,SW,224,0.0,0.0,95,0.03,,---,0.00,VWS V14.01,2013-04-14 08:20:00,
2013-04-14 04:25:00,28.2,27.0,30.01,SW,224,0.0,0.0,95,0.03,,---,0.00,VWS V14.01,2013-04-14 08:25:00,
2013-04-14 04:30:00,28.2,27.0,30.01,SW,224,0.0,0.0,95,0.03,,---,0.00,VWS V14.01,2013-04-14 08:30:00,
2013-04-14 04:35:00,28.2,27.0,30.01,SW,224,0.0,0.0,95,0.03,,---,0.00,VWS V14.01,2013-04-14 08:35:00,
2013-04-14 04:40:00,28.2,27.0,30.01,SW,224,0.0,0.0,95,0.03,,---,0.00,VWS V14.01,2013-04-14 08:40:00,
2013-04-14 04:50:00,27.9,26.7,30.01,SW,224,0.0,0.0,95,0.03,,---,0.00,VWS V14.01,2013-04-14 08:50:00,
2013-04-14 04:55:00,27.8,26.6,30.01,SW,224,0.0,0.0,95,0.03,,---,0.00,VWS V14.01,2013-04-14 08:55:00,
2013-04-14 05:00:00,28.0,27.0,30.02,SW,224,0.0,0.0,96,0.03,,---,0.00,VWS V14.01,2013-04-14 09:00:00,
2013-04-14 05:05:00,27.7,26.5,30.02,SW,224,0.0,0.0,95,0.03,,---,0.00,VWS V14.01,2013-04-14 09:05:00,
2013-04-14 05:10:00,27.9,26.9,30.02,SW,224,0.0,0.0,96,0.03,,---,0.00,VWS V14.01,2013-04-14 09:10:00,
2013-04-14 05:20:00,28.1,27.1,30.02,SW,229,0.0,0.0,96,0.03,,---,0.00,VWS V14.01,2013-04-14 09:20:00,
2013-04-14 05:25:00,28.2,27.2,30.02,SW,229,0.0,0.0,96,0.03,,---,0.00,VWS V14.01,2013-04-14 09:25:00,
2013-04-14 05:30:00,28.3,27.3,30.02,SW,229,0.0,0.0,96,0.03,,---,0.00,VWS V14.01,2013-04-14 09:30:00,
2013-04-14 05:35:00,28.2,27.2,30.02,SW,229,0.0,0.0,96,0.03,,---,0.00,VWS V14.01,2013-04-14 09:35:00,
2013-04-14 05:40:00,28.3,27.3,30.02,SW,229,0.0,0.0,96,0.03,,---,0.00,VWS V14.01,2013-04-14 09:40:00,
2013-04-14 05:45:00,28.3,27.3,30.02,SW,229,0.0,0.0,96,0.03,,---,0.00,VWS V14.01,2013-04-14 09:45:00,
2013-04-14 05:50:00,28.0,26.8,30.02,SW,229,0.0,0.0,95,0.03,,---,0.00,VWS V14.01,2013-04-14 09:50:00,
2013-04-14 05:55:00,27.7,26.5,30.03,SW,229,0.0,0.0,95,0.03,,---,0.00,VWS V14.01,2013-04-14 09:55:00,
2013-04-14 06:00:00,27.5,26.3,30.03,SW,229,0.0,0.0,95,0.03,,---,0.00,VWS V14.01,2013-04-14 10:00:00,
2013-04-14 06:05:00,27.1,25.9,30.03,SW,229,0.0,0.0,95,0.03,,---,0.00,VWS V14.01,2013-04-14 10:05:00,
2013-04-14 06:10:00,27.5,26.5,30.04,SW,228,0.0,1.0,96,0.03,,---,0.00,VWS V14.01,2013-04-14 10:10:00,
2013-04-14 06:20:00,27.5,26.5,30.04,SW,228,0.0,0.0,96,0.03,,---,0.00,VWS V14.01,2013-04-14 10:20:00,
2013-04-14 06:25:00,27.5,26.5,30.04,SW,228,0.0,0.0,96,0.03,,---,0.00,VWS V14.01,2013-04-14 10:25:00,
2013-04-14 06:30:00,27.4,26.4,30.04,SW,228,0.0,0.0,96,0.03,,---,0.00,VWS V14.01,2013-04-14 10:30:00,
2013-04-14 06:35:00,27.4,26.4,30.04,SW,228,0.0,0.0,96,0.03,,---,0.00,VWS V14.01,2013-04-14 10:35:00,
2013-04-14 06:40:00,27.6,26.6,30.04,SW,228,0.0,0.0,96,0.03,,---,0.00,VWS V14.01,2013-04-14 10:40:00,
2013-04-14 06:45:00,27.8,27.1,30.04,SW,228,0.0,0.0,97,0.03,,---,0.00,VWS V14.01,2013-04-14 10:45:00,
2013-04-14 06:50:00,27.9,26.9,30.05,SW,228,0.0,0.0,96,0.03,,---,0.00,VWS V14.01,2013-04-14 10:50:00,
2013-04-14 06:55:00,27.9,26.9,30.05,SW,228,0.0,0.0,96,0.03,,---,0.00,VWS V14.01,2013-04-14 10:55:00,
2013-04-14 07:00:00,27.9,26.9,30.05,SW,229,0.0,0.0,96,0.03,,---,0.00,VWS V14.01,2013-04-14 11:00:00,
2013-04-14 07:05:00,28.0,27.0,30.05,SW,228,0.0,0.0,96,0.03,,---,0.00,VWS V14.01,2013-04-14 11:05:00,
2013-04-14 07:10:00,28.1,27.1,30.06,SW,228,0.0,0.0,96,0.03,,---,0.00,VWS V14.01,2013-04-14 11:10:00,
2013-04-14 07:15:00,28.1,27.1,30.06,SW,228,0.0,0.0,96,0.03,,---,0.00,VWS V14.01,2013-04-14 11:15:00,
2013-04-14 07:25:00,28.7,27.7,30.06,SW,228,0.0,0.0,96,0.03,,---,0.00,VWS V14.01,2013-04-14 11:25:00,
2013-04-14 07:30:00,29.2,28.2,30.06,SW,228,0.0,0.0,96,0.03,,---,0.00,VWS V14.01,2013-04-14 11:30:00,
2013-04-14 07:35:00,30.0,29.2,30.06,SW,228,0.0,0.0,97,0.03,,---,0.00,VWS V14.01,2013-04-14 11:35:00,
2013-04-14 07:40:00,30.5,29.8,30.07,SW,228,0.0,0.0,97,0.03,,---,0.00,VWS V14.01,2013-04-14 11:40:00,
2013-04-14 07:45:00,30.4,29.1,30.07,SW,229,0.0,0.0,95,0.03,,---,0.00,VWS V14.01,2013-04-14 11:45:00,
2013-04-14 07:50:00,30.5,29.2,30.07,SW,229,0.0,0.0,95,0.03,,---,0.00,VWS V14.01,2013-04-14 11:50:00,
2013-04-14 07:55:00,30.7,29.4,30.07,SW,228,0.0,0.0,95,0.03,,---,0.00,VWS V14.01,2013-04-14 11:55:00,
2013-04-14 08:00:00,31.0,29.7,30.07,SW,228,0.0,0.0,95,0.03,,---,0.00,VWS V14.01,2013-04-14 12:00:00,
2013-04-14 08:05:00,31.3,29.8,30.08,SW,228,0.0,1.0,94,0.03,,---,0.00,VWS V14.01,2013-04-14 12:05:00,
2013-04-14 08:10:00,31.5,30.0,30.07,SW,228,0.0,0.0,94,0.03,,---,0.00,VWS V14.01,2013-04-14 12:10:00,
2013-04-14 08:15:00,31.6,30.1,30.07,SW,228,0.0,0.0,94,0.03,,---,0.00,VWS V14.01,2013-04-14 12:15:00,
2013-04-14 08:20:00,31.8,30.3,30.07,SW,227,0.0,0.0,94,0.03,,---,0.00,VWS V14.01,2013-04-14 12:20:00,
2013-04-14 08:30:00,32.4,30.9,30.06,SW,228,0.0,0.0,94,0.03,,---,0.00,VWS V14.01,2013-04-14 12:30:00,
2013-04-14 08:35:00,32.5,30.7,30.06,SW,227,0.0,0.0,93,0.03,,---,0.00,VWS V14.01,2013-04-14 12:35:00,
2013-04-14 08:40:00,32.8,30.7,30.07,SW,228,0.0,0.0,92,0.03,,---,0.00,VWS V14.01,2013-04-14 12:40:00,
2013-04-14 08:45:00,33.0,30.9,30.07,SW,228,0.0,0.0,92,0.03,,---,0.00,VWS V14.01,2013-04-14 12:45:00,
2013-04-14 08:50:00,33.3,31.2,30.07,SW,228,0.0,0.0,92,0.03,,---,0.00,VWS V14.01,2013-04-14 12:50:00,
2013-04-14 08:55:00,33.7,31.4,30.06,SW,228,0.0,0.0,91,0.03,,---,0.00,VWS V14.01,2013-04-14 12:55:00,
2013-04-14 09:00:00,34.0,31.0,30.06,SW,228,0.0,0.0,90,0.00,,,0.00,weatherlink.com 1.10,2013-04-14 13:00:00,
2013-04-14 09:05:00,34.3,31.7,30.06,SSW,208,0.0,1.0,90,0.03,,---,0.00,VWS V14.01,2013-04-14 13:05:00,
2013-04-14 09:10:00,34.8,31.9,30.06,SSW,208,0.0,0.0,89,0.03,,---,0.00,VWS V14.01,2013-04-14 13:10:00,
2013-04-14 09:15:00,35.3,32.1,30.06,SSW,209,0.0,0.0,88,0.03,,---,0.00,VWS V14.01,2013-04-14 13:15:00,
2013-04-14 09:20:00,35.6,31.8,30.06,NNE,23,0.0,1.0,86,0.03,,---,0.00,VWS V14.01,2013-04-14 13:20:00,
2013-04-14 09:25:00,35.9,31.8,30.05,NNE,23,0.0,0.0,85,0.03,,---,0.00,VWS V14.01,2013-04-14 13:25:00,
2013-04-14 09:30:00,35.9,31.5,30.05,NE,50,0.0,1.0,84,0.03,,---,0.00,VWS V14.01,2013-04-14 13:30:00,
2013-04-14 09:35:00,35.9,31.2,30.05,NE,50,0.0,1.0,83,0.03,,---,0.00,VWS V14.01,2013-04-14 13:35:00,
2013-04-14 09:40:00,36.0,31.4,30.05,NE,50,0.0,0.0,83,0.03,,---,0.00,VWS V14.01,2013-04-14 13:40:00,
2013-04-14 09:45:00,36.3,31.6,30.04,NE,50,0.0,0.0,83,0.03,,---,0.00,VWS V14.01,2013-04-14 13:45:00,
2013-04-14 09:50:00,36.2,31.2,30.04,ENE,68,0.0,2.0,82,0.03,,---,0.00,VWS V14.01,2013-04-14 13:50:00,
2013-04-14 09:55:00,36.1,31.1,30.03,ENE,77,1.0,3.0,82,0.03,,---,0.00,VWS V14.01,2013-04-14 13:55:00,
2013-04-14 10:00:00,36.2,31.2,30.03,ESE,108,1.0,3.0,82,0.03,,---,0.00,VWS V14.01,2013-04-14 14:00:00,
2013-04-14 10:05:00,36.4,31.7,30.03,ENE,74,2.0,3.0,83,0.03,,---,0.00,VWS V14.01,2013-04-14 14:05:00,
2013-04-14 10:10:00,36.4,31.4,30.02,East,84,1.0,4.0,82,0.03,,---,0.00,VWS V14.01,2013-04-14 14:10:00,
2013-04-14 10:15:00,36.4,31.1,30.03,ENE,77,2.0,4.0,81,0.03,,---,0.00,VWS V14.01,2013-04-14 14:15:00,
2013-04-14 10:20:00,36.4,31.1,30.03,ESE,102,2.0,3.0,81,0.03,,---,0.00,VWS V14.01,2013-04-14 14:20:00,
2013-04-14 10:25:00,36.4,31.4,30.02,East,85,2.0,3.0,82,0.03,,---,0.00,VWS V14.01,2013-04-14 14:25:00,
2013-04-14 10:30:00,36.4,31.1,30.02,East,93,2.0,5.0,81,0.03,,---,0.00,VWS V14.01,2013-04-14 14:30:00,
2013-04-14 10:35:00,36.5,31.2,30.02,ESE,104,3.0,5.0,81,0.03,,---,0.00,VWS V14.01,2013-04-14 14:35:00,
2013-04-14 10:40:00,36.7,31.4,30.03,ESE,104,1.0,4.0,81,0.03,,---,0.00,VWS V14.01,2013-04-14 14:40:00,
2013-04-14 10:45:00,37.0,31.7,30.03,ESE,120,0.0,2.0,81,0.03,,---,0.00,VWS V14.01,2013-04-14 14:45:00,
2013-04-14 10:50:00,37.2,31.6,30.03,ESE,105,4.0,4.0,80,0.03,,---,0.00,VWS V14.01,2013-04-14 14:50:00,
2013-04-14 10:55:00,37.3,31.7,30.03,East,81,4.0,4.0,80,0.03,,---,0.00,VWS V14.01,2013-04-14 14:55:00,
2013-04-14 11:00:00,37.6,31.7,30.04,East,80,4.0,5.0,79,0.03,,---,0.00,VWS V14.01,2013-04-14 15:00:00,
2013-04-14 11:05:00,37.5,31.0,30.04,ESE,104,1.0,6.0,77,0.03,,---,0.00,VWS V14.01,2013-04-14 15:05:00,
2013-04-14 11:10:00,37.7,30.8,30.04,ESE,108,9.0,9.0,76,0.03,,---,0.00,VWS V14.01,2013-04-14 15:10:00,
2013-04-14 11:25:00,37.5,30.6,30.06,ESE,102,1.0,3.0,76,0.03,,---,0.00,VWS V14.01,2013-04-14 15:25:00,
2013-04-14 11:30:00,37.5,31.0,30.07,SE,129,0.0,3.0,77,0.03,,---,0.00,VWS V14.01,2013-04-14 15:30:00,
2013-04-14 11:35:00,37.5,31.3,30.07,ESE,120,0.0,5.0,78,0.03,,---,0.00,VWS V14.01,2013-04-14 15:35:00,
2013-04-14 11:40:00,37.5,31.6,30.08,ESE,108,1.0,4.0,79,0.03,,---,0.00,VWS V14.01,2013-04-14 15:40:00,
2013-04-14 11:45:00,37.6,31.7,30.09,SW,224,0.0,1.0,79,0.03,,---,0.00,VWS V14.01,2013-04-14 15:45:00,
2013-04-14 11:50:00,37.6,31.7,30.09,West,266,0.0,1.0,79,0.03,,---,0.00,VWS V14.01,2013-04-14 15:50:00,
2013-04-14 12:00:00,37.7,31.8,30.09,SSW,205,0.0,3.0,79,0.03,,---,0.00,VWS V14.01,2013-04-14 16:00:00,
2013-04-14 12:05:00,37.7,31.8,30.09,SW,222,1.0,3.0,79,0.03,,---,0.00,VWS V14.01,2013-04-14 16:05:00,
2013-04-14 12:10:00,37.6,32.0,30.09,SE,131,0.0,2.0,80,0.03,,---,0.00,VWS V14.01,2013-04-14 16:10:00,
2013-04-14 12:15:00,37.6,32.3,30.10,ESE,117,0.0,1.0,81,0.03,,---,0.00,VWS V14.01,2013-04-14 16:15:00,
2013-04-14 12:20:00,37.6,32.3,30.11,ESE,123,3.0,5.0,81,0.03,,---,0.00,VWS V14.01,2013-04-14 16:20:00,
2013-04-14 12:25:00,37.3,32.6,30.10,East,79,0.0,3.0,83,0.03,,---,0.00,VWS V14.01,2013-04-14 16:25:00,
2013-04-14 12:30:00,37.0,32.6,30.09,West,270,0.0,2.0,84,0.03,,---,0.00,VWS V14.01,2013-04-14 16:30:00,
2013-04-14 12:35:00,36.7,32.9,30.09,SW,229,0.0,1.0,86,0.03,,---,0.00,VWS V14.01,2013-04-14 16:35:00,
2013-04-14 12:40:00,36.6,33.1,30.09,SW,229,0.0,0.0,87,0.03,,---,0.00,VWS V14.01,2013-04-14 16:40:00,
2013-04-14 12:45:00,36.4,33.2,30.09,SW,231,0.0,1.0,88,0.03,,---,0.00,VWS V14.01,2013-04-14 16:45:00,
2013-04-14 12:50:00,36.0,33.1,30.09,SE,133,0.0,1.0,89,0.04,,---,0.01,VWS V14.01,2013-04-14 16:50:00,
2013-04-14 12:55:00,35.7,32.8,30.09,ESE,108,1.0,2.0,89,0.04,,---,0.01,VWS V14.01,2013-04-14 16:55:00,
2013-04-14 13:00:00,35.4,32.8,30.08,South,169,0.0,1.0,90,0.04,,---,0.01,VWS V14.01,2013-04-14 17:00:00,
2013-04-14 13:05:00,35.1,32.7,30.08,WSW,240,0.0,2.0,91,0.04,,---,0.01,VWS V14.01,2013-04-14 17:05:00,
2013-04-14 13:10:00,34.7,32.3,30.07,ESE,103,0.0,3.0,91,0.04,,---,0.01,VWS V14.01,2013-04-14 17:10:00,
2013-04-14 13:15:00,34.4,32.3,30.07,East,100,1.0,2.0,92,0.04,,---,0.01,VWS V14.01,2013-04-14 17:15:00,
2013-04-14 13:20:00,34.3,32.5,30.07,East,84,1.0,2.0,93,0.04,,---,0.01,VWS V14.01,2013-04-14 17:20:00,
2013-04-14 13:25:00,34.1,32.3,30.06,East,84,2.0,4.0,93,0.04,,---,0.01,VWS V14.01,2013-04-14 17:25:00,
2013-04-14 13:30:00,34.2,32.7,30.05,East,90,4.0,4.0,94,0.04,,---,0.01,VWS V14.01,2013-04-14 17:30:00,
2013-04-14 13:35:00,34.3,32.8,30.04,NE,56,5.0,6.0,94,0.05,,---,0.02,VWS V14.01,2013-04-14 17:35:00,
2013-04-14 13:40:00,34.5,33.0,30.03,NE,34,4.0,6.0,94,0.05,,---,0.02,VWS V14.01,2013-04-14 17:40:00,
2013-04-14 13:45:00,34.9,33.3,30.03,East,87,3.0,7.0,94,0.06,,---,0.03,VWS V14.01,2013-04-14 17:45:00,
2013-04-14 13:50:00,35.2,33.7,30.04,ESE,102,5.0,9.0,94,0.07,,---,0.04,VWS V14.01,2013-04-14 17:50:00,
2013-04-14 13:55:00,35.6,34.3,30.04,ESE,110,4.0,4.0,95,0.07,,---,0.04,VWS V14.01,2013-04-14 17:55:00,
2013-04-14 14:00:00,35.8,34.2,30.04,East,82,0.0,7.0,94,0.07,,---,0.04,VWS V14.01,2013-04-14 18:00:00,
2013-04-14 14:05:00,36.0,33.9,30.03,East,98,5.0,8.0,92,0.08,,---,0.05,VWS V14.01,2013-04-14 18:05:00,
2013-04-14 14:10:00,36.1,34.0,30.03,ESE,107,5.0,9.0,92,0.08,,---,0.05,VWS V14.01,2013-04-14 18:10:00,
2013-04-14 14:15:00,36.3,34.2,30.03,East,90,7.0,8.0,92,0.08,,---,0.05,VWS V14.01,2013-04-14 18:15:00,
2013-04-14 14:25:00,36.7,34.3,30.03,ESE,108,2.0,8.0,91,0.08,,---,0.05,VWS V14.01,2013-04-14 18:25:00,
2013-04-14 14:30:00,37.3,34.6,30.02,ESE,102,5.0,7.0,90,0.08,,---,0.05,VWS V14.01,2013-04-14 18:30:00,
2013-04-14 14:35:00,37.5,34.8,30.02,East,98,4.0,10.0,90,0.08,,---,0.05,VWS V14.01,2013-04-14 18:35:00,
2013-04-14 14:40:00,38.1,35.7,30.03,NE,54,2.0,3.0,91,0.08,,---,0.05,VWS V14.01,2013-04-14 18:40:00,
2013-04-14 14:45:00,38.2,34.7,30.02,ENE,71,4.0,9.0,87,0.08,,---,0.05,VWS V14.01,2013-04-14 18:45:00,
2013-04-14 14:50:00,38.2,35.0,30.02,East,86,4.0,8.0,88,0.08,,---,0.05,VWS V14.01,2013-04-14 18:50:00,
2013-04-14 14:55:00,38.8,35.6,30.03,SE,132,4.0,9.0,88,0.08,,---,0.05,VWS V14.01,2013-04-14 18:55:00,
2013-04-14 15:00:00,38.9,35.1,30.02,East,89,6.0,8.0,86,0.08,,---,0.05,VWS V14.01,2013-04-14 19:00:00,
2013-04-14 15:05:00,38.8,35.3,30.02,ESE,120,5.0,5.0,87,0.08,,---,0.05,VWS V14.01,2013-04-14 19:05:00,
2013-04-14 15:10:00,39.1,35.6,30.02,East,98,7.0,10.0,87,0.08,,---,0.05,VWS V14.01,2013-04-14 19:10:00,
2013-04-14 15:15:00,39.3,35.8,30.01,East,83,2.0,8.0,87,0.08,,---,0.05,VWS V14.01,2013-04-14 19:15:00,
2013-04-14 15:20:00,39.6,35.5,30.01,ENE,72,5.0,14.0,85,0.08,,---,0.05,VWS V14.01,2013-04-14 19:20:00,
2013-04-14 15:25:00,39.5,35.1,30.00,ENE,71,6.0,12.0,84,0.08,,---,0.05,VWS V14.01,2013-04-14 19:25:00,
2013-04-14 15:30:00,39.5,35.7,30.00,ESE,110,1.0,11.0,86,0.08,,---,0.05,VWS V14.01,2013-04-14 19:30:00,
2013-04-14 15:35:00,39.8,35.7,30.00,ENE,77,4.0,11.0,85,0.08,,---,0.05,VWS V14.01,2013-04-14 19:35:00,
2013-04-14 15:40:00,40.3,36.2,30.00,East,82,11.0,11.0,85,0.08,,---,0.05,VWS V14.01,2013-04-14 19:40:00,
2013-04-14 15:45:00,40.5,36.0,30.00,ESE,108,7.0,11.0,84,0.08,,---,0.05,VWS V14.01,2013-04-14 19:45:00,
2013-04-14 15:50:00,40.5,36.0,30.00,East,98,9.0,11.0,84,0.08,,---,0.05,VWS V14.01,2013-04-14 19:50:00,
2013-04-14 15:55:00,40.8,36.0,29.99,East,79,5.0,10.0,83,0.08,,---,0.05,VWS V14.01,2013-04-14 19:55:00,
2013-04-14 16:00:00,41.0,36.2,29.99,SE,127,11.0,11.0,83,0.08,,---,0.05,VWS V14.01,2013-04-14 20:00:00,
2013-04-14 16:05:00,41.1,36.6,29.99,East,90,6.0,11.0,84,0.08,,---,0.05,VWS V14.01,2013-04-14 20:05:00,
2013-04-14 16:10:00,41.4,36.3,29.99,East,88,7.0,12.0,82,0.08,,---,0.05,VWS V14.01,2013-04-14 20:10:00,
2013-04-14 16:15:00,41.3,36.2,29.98,East,86,4.0,13.0,82,0.08,,---,0.05,VWS V14.01,2013-04-14 20:15:00,
2013-04-14 16:20:00,41.9,36.8,29.99,ESE,104,12.0,12.0,82,0.08,,---,0.05,VWS V14.01,2013-04-14 20:20:00,
2013-04-14 16:25:00,42.0,36.9,29.98,East,81,2.0,12.0,82,0.08,,---,0.05,VWS V14.01,2013-04-14 20:25:00,
2013-04-14 16:30:00,42.7,37.3,29.98,East,81,5.0,11.0,81,0.08,,---,0.05,VWS V14.01,2013-04-14 20:30:00,
2013-04-14 16:35:00,42.3,36.9,29.97,ENE,77,10.0,11.0,81,0.08,,---,0.05,VWS V14.01,2013-04-14 20:35:00,
2013-04-14 16:40:00,42.3,37.2,29.97,ESE,108,8.0,12.0,82,0.08,,---,0.05,VWS V14.01,2013-04-14 20:40:00,
2013-04-14 16:45:00,42.6,37.2,29.97,East,81,5.0,13.0,81,0.08,,---,0.05,VWS V14.01,2013-04-14 20:45:00,
2013-04-14 16:50:00,43.3,37.9,29.96,ENE,61,6.0,17.0,81,0.08,,---,0.05,VWS V14.01,2013-04-14 20:50:00,
2013-04-14 16:55:00,43.8,38.0,29.96,SE,134,7.0,8.0,80,0.08,,---,0.05,VWS V14.01,2013-04-14 20:55:00,
2013-04-14 17:00:00,43.9,38.1,29.96,ESE,108,11.0,13.0,80,0.08,,---,0.05,VWS V14.01,2013-04-14 21:00:00,
2013-04-14 17:05:00,44.0,38.2,29.95,East,98,6.0,10.0,80,0.08,,---,0.05,VWS V14.01,2013-04-14 21:05:00,
2013-04-14 17:10:00,43.9,38.1,29.95,East,91,9.0,13.0,80,0.08,,---,0.05,VWS V14.01,2013-04-14 21:10:00,
2013-04-14 17:15:00,43.9,38.1,29.95,ESE,102,7.0,10.0,80,0.08,,---,0.05,VWS V14.01,2013-04-14 21:15:00,
2013-04-14 17:20:00,43.9,38.1,29.94,East,81,9.0,13.0,80,0.08,,---,0.05,VWS V14.01,2013-04-14 21:20:00,
2013-04-14 17:25:00,43.6,37.8,29.94,ESE,102,6.0,13.0,80,0.08,,---,0.05,VWS V14.01,2013-04-14 21:25:00,
2013-04-14 17:30:00,43.5,38.1,29.94,East,94,7.0,13.0,81,0.08,,---,0.05,VWS V14.01,2013-04-14 21:30:00,
2013-04-14 17:35:00,43.5,38.1,29.94,ESE,104,9.0,14.0,81,0.08,,---,0.05,VWS V14.01,2013-04-14 21:35:00,
2013-04-14 17:40:00,43.9,38.5,29.93,East,96,9.0,13.0,81,0.08,,---,0.05,VWS V14.01,2013-04-14 21:40:00,
2013-04-14 17:45:00,44.1,38.3,29.93,SE,136,11.0,15.0,80,0.08,,---,0.05,VWS V14.01,2013-04-14 21:45:00,
2013-04-14 17:50:00,44.4,38.6,29.93,ENE,71,9.0,14.0,80,0.08,,---,0.05,VWS V14.01,2013-04-14 21:50:00,
2013-04-14 17:55:00,44.1,38.7,29.93,East,101,9.0,15.0,81,0.08,,---,0.05,VWS V14.01,2013-04-14 21:55:00,
2013-04-14 18:00:00,44.3,38.8,29.93,ESE,105,4.0,7.0,81,0.08,,---,0.05,VWS V14.01,2013-04-14 22:00:00,
2013-04-14 18:05:00,44.3,38.8,29.93,ESE,106,7.0,14.0,81,0.08,,---,0.05,VWS V14.01,2013-04-14 22:05:00,
2013-04-14 18:10:00,44.5,39.0,29.93,East,92,9.0,11.0,81,0.08,,---,0.05,VWS V14.01,2013-04-14 22:10:00,
2013-04-14 18:15:00,44.4,38.9,29.93,ESE,108,6.0,10.0,81,0.08,,---,0.05,VWS V14.01,2013-04-14 22:15:00,
2013-04-14 18:20:00,44.3,38.8,29.93,East,84,5.0,12.0,81,0.08,,---,0.05,VWS V14.01,2013-04-14 22:20:00,
2013-04-14 18:25:00,44.3,38.8,29.93,ESE,113,4.0,9.0,81,0.08,,---,0.05,VWS V14.01,2013-04-14 22:25:00,
2013-04-14 18:30:00,44.6,39.1,29.93,East,86,10.0,13.0,81,0.08,,---,0.05,VWS V14.01,2013-04-14 22:30:00,
2013-04-14 18:35:00,44.7,39.2,29.93,SE,129,3.0,13.0,81,0.08,,---,0.05,VWS V14.01,2013-04-14 22:35:00,
2013-04-14 18:40:00,44.9,39.4,29.93,East,86,6.0,13.0,81,0.08,,---,0.05,VWS V14.01,2013-04-14 22:40:00,
2013-04-14 18:45:00,45.1,39.6,29.93,East,83,2.0,12.0,81,0.08,,---,0.05,VWS V14.01,2013-04-14 22:45:00,
2013-04-14 18:50:00,45.3,39.8,29.93,East,94,10.0,14.0,81,0.08,,---,0.05,VWS V14.01,2013-04-14 22:50:00,
2013-04-14 18:55:00,45.4,39.9,29.93,ESE,102,6.0,12.0,81,0.08,,---,0.05,VWS V14.01,2013-04-14 22:55:00,
2013-04-14 19:00:00,45.5,39.7,29.93,ESE,110,4.0,18.0,80,0.08,,---,0.05,VWS V14.01,2013-04-14 23:00:00,
2013-04-14 19:05:00,45.5,39.7,29.93,East,98,6.0,13.0,80,0.08,,---,0.05,VWS V14.01,2013-04-14 23:05:00,
2013-04-14 19:10:00,45.4,39.6,29.93,ENE,74,4.0,15.0,80,0.08,,---,0.05,VWS V14.01,2013-04-14 23:10:00,
2013-04-14 19:15:00,45.4,39.9,29.93,ENE,78,6.0,12.0,81,0.08,,---,0.05,VWS V14.01,2013-04-14 23:15:00,
2013-04-14 19:20:00,45.4,39.9,29.92,ESE,110,5.0,10.0,81,0.08,,---,0.05,VWS V14.01,2013-04-14 23:20:00,
2013-04-14 19:25:00,45.5,40.0,29.93,ESE,112,7.0,12.0,81,0.08,,---,0.05,VWS V14.01,2013-04-14 23:25:00,
2013-04-14 19:30:00,45.6,40.1,29.92,East,98,10.0,11.0,81,0.08,,---,0.05,VWS V14.01,2013-04-14 23:30:00,
2013-04-14 19:35:00,45.7,40.2,29.92,East,88,3.0,13.0,81,0.08,,---,0.05,VWS V14.01,2013-04-14 23:35:00,
2013-04-14 19:40:00,45.7,40.2,29.91,East,92,8.0,10.0,81,0.08,,---,0.05,VWS V14.01,2013-04-14 23:40:00,
2013-04-14 19:45:00,45.6,40.1,29.91,East,85,8.0,10.0,81,0.08,,---,0.05,VWS V14.01,2013-04-14 23:45:00,
2013-04-14 19:50:00,45.5,40.0,29.91,East,96,10.0,12.0,81,0.08,,---,0.05,VWS V14.01,2013-04-14 23:50:00,
2013-04-14 19:55:00,45.5,40.0,29.91,ESE,103,5.0,11.0,81,0.08,,---,0.05,VWS V14.01,2013-04-14 23:55:00,
2013-04-14 20:00:00,45.4,39.9,29.91,ESE,106,5.0,11.0,81,0.08,,---,0.05,VWS V14.01,2013-04-15 00:00:00,
2013-04-14 20:05:00,45.3,40.1,29.91,East,101,5.0,11.0,82,0.08,,---,0.05,VWS V14.01,2013-04-15 00:05:00,
2013-04-14 20:10:00,45.2,40.0,29.91,East,98,7.0,12.0,82,0.08,,---,0.05,VWS V14.01,2013-04-15 00:10:00,
2013-04-14 20:15:00,45.1,39.9,29.91,East,98,7.0,8.0,82,0.08,,---,0.05,VWS V14.01,2013-04-15 00:15:00,
2013-04-14 20:20:00,45.1,39.9,29.90,SE,139,8.0,8.0,82,0.08,,---,0.05,VWS V14.01,2013-04-15 00:20:00,
2013-04-14 20:25:00,45.1,39.9,29.90,East,84,4.0,10.0,82,0.08,,---,0.05,VWS V14.01,2013-04-15 00:25:00,
2013-04-14 20:30:00,45.0,39.8,29.90,East,79,3.0,9.0,82,0.08,,---,0.05,VWS V14.01,2013-04-15 00:30:00,
2013-04-14 20:35:00,44.9,39.8,29.90,East,94,4.0,7.0,82,0.08,,---,0.05,VWS V14.01,2013-04-15 00:35:00,
2013-04-14 20:40:00,44.8,39.7,29.90,East,91,3.0,11.0,82,0.08,,---,0.05,VWS V14.01,2013-04-15 00:40:00,
2013-04-14 20:45:00,44.7,39.9,29.90,East,91,2.0,5.0,83,0.08,,---,0.05,VWS V14.01,2013-04-15 00:45:00,
2013-04-14 20:50:00,44.6,39.8,29.90,ESE,110,2.0,7.0,83,0.08,,---,0.05,VWS V14.01,2013-04-15 00:50:00,
2013-04-14 20:55:00,44.7,39.5,29.90,East,98,5.0,8.0,82,0.08,,---,0.05,VWS V14.01,2013-04-15 00:55:00,
2013-04-14 21:00:00,44.7,39.5,29.90,ENE,71,5.0,6.0,82,0.08,,---,0.05,VWS V14.01,2013-04-15 01:00:00,
2013-04-14 21:05:00,44.7,39.5,29.90,East,86,1.0,6.0,82,0.08,,---,0.05,VWS V14.01,2013-04-15 01:05:00,
2013-04-14 21:10:00,44.6,39.1,29.90,East,91,9.0,9.0,81,0.08,,---,0.05,VWS V14.01,2013-04-15 01:10:00,
2013-04-14 21:15:00,44.7,39.2,29.90,East,92,4.0,7.0,81,0.08,,---,0.05,VWS V14.01,2013-04-15 01:15:00,
2013-04-14 21:20:00,44.7,38.9,29.90,East,94,3.0,8.0,80,0.08,,---,0.05,VWS V14.01,2013-04-15 01:20:00,
2013-04-14 21:25:00,44.7,38.9,29.90,ESE,102,4.0,7.0,80,0.08,,---,0.05,VWS V14.01,2013-04-15 01:25:00,
2013-04-14 21:30:00,44.6,38.8,29.90,East,93,4.0,6.0,80,0.08,,---,0.05,VWS V14.01,2013-04-15 01:30:00,
2013-04-14 21:35:00,44.7,38.6,29.90,East,84,4.0,6.0,79,0.08,,---,0.05,VWS V14.01,2013-04-15 01:35:00,
2013-04-14 21:40:00,44.6,38.5,29.90,ENE,73,5.0,8.0,79,0.08,,---,0.05,VWS V14.01,2013-04-15 01:40:00,
2013-04-14 21:45:00,44.6,38.5,29.90,East,95,4.0,7.0,79,0.08,,---,0.05,VWS V14.01,2013-04-15 01:45:00,
2013-04-14 21:50:00,44.5,38.4,29.90,East,91,3.0,10.0,79,0.08,,---,0.05,VWS V14.01,2013-04-15 01:50:00,
2013-04-14 21:55:00,44.3,38.2,29.90,East,93,2.0,9.0,79,0.08,,---,0.05,VWS V14.01,2013-04-15 01:55:00,
2013-04-14 22:00:00,44.3,38.2,29.90,ESE,104,3.0,9.0,79,0.08,,---,0.05,VWS V14.01,2013-04-15 02:00:00,
2013-04-14 22:05:00,44.1,38.0,29.90,East,92,5.0,8.0,79,0.08,,---,0.05,VWS V14.01,2013-04-15 02:05:00,
2013-04-14 22:10:00,44.1,38.0,29.89,East,81,6.0,10.0,79,0.08,,---,0.05,VWS V14.01,2013-04-15 02:10:00,
2013-04-14 22:15:00,44.0,37.9,29.89,SE,142,3.0,7.0,79,0.08,,---,0.05,VWS V14.01,2013-04-15 02:15:00,
2013-04-14 22:20:00,43.9,37.8,29.89,ESE,114,5.0,12.0,79,0.08,,---,0.05,VWS V14.01,2013-04-15 02:20:00,
2013-04-14 22:25:00,43.9,37.8,29.89,ESE,108,4.0,9.0,79,0.08,,---,0.05,VWS V14.01,2013-04-15 02:25:00,
2013-04-14 22:30:00,43.8,37.7,29.89,East,82,3.0,9.0,79,0.08,,---,0.05,VWS V14.01,2013-04-15 02:30:00,
2013-04-14 22:35:00,43.7,37.6,29.88,SE,129,8.0,11.0,79,0.08,,---,0.05,VWS V14.01,2013-04-15 02:35:00,
2013-04-14 22:40:00,43.6,37.5,29.88,East,96,5.0,11.0,79,0.08,,---,0.05,VWS V14.01,2013-04-15 02:40:00,
2013-04-14 22:45:00,43.5,37.8,29.87,East,87,7.0,10.0,80,0.08,,---,0.05,VWS V14.01,2013-04-15 02:45:00,
2013-04-14 22:50:00,43.5,37.8,29.87,East,92,4.0,10.0,80,0.08,,---,0.05,VWS V14.01,2013-04-15 02:50:00,
2013-04-14 22:55:00,43.3,37.6,29.87,East,93,4.0,7.0,80,0.08,,---,0.05,VWS V14.01,2013-04-15 02:55:00,
2013-04-14 23:00:00,43.3,37.6,29.87,East,95,3.0,10.0,80,0.08,,---,0.05,VWS V14.01,2013-04-15 03:00:00,
2013-04-14 23:05:00,43.3,37.6,29.87,East,86,5.0,10.0,80,0.08,,---,0.05,VWS V14.01,2013-04-15 03:05:00,
2013-04-14 23:10:00,43.2,37.5,29.86,East,79,5.0,10.0,80,0.08,,---,0.05,VWS V14.01,2013-04-15 03:10:00,
2013-04-14 23:15:00,43.1,37.4,29.86,East,82,6.0,8.0,80,0.08,,---,0.05,VWS V14.01,2013-04-15 03:15:00,
2013-04-14 23:20:00,43.1,37.4,29.86,ENE,65,4.0,8.0,80,0.08,,---,0.05,VWS V14.01,2013-04-15 03:20:00,
2013-04-14 23:25:00,43.0,37.3,29.86,SE,136,8.0,10.0,80,0.08,,---,0.05,VWS V14.01,2013-04-15 03:25:00,
2013-04-14 23:30:00,42.9,37.2,29.86,ESE,121,3.0,9.0,80,0.08,,---,0.05,VWS V14.01,2013-04-15 03:30:00,
2013-04-14 23:35:00,42.8,37.4,29.86,East,86,5.0,9.0,81,0.08,,---,0.05,VWS V14.01,2013-04-15 03:35:00,
2013-04-14 23:40:00,42.8,37.4,29.86,ENE,72,2.0,11.0,81,0.08,,---,0.05,VWS V14.01,2013-04-15 03:40:00,
2013-04-14 23:45:00,42.7,37.3,29.86,SE,125,2.0,11.0,81,0.08,,---,0.05,VWS V14.01,2013-04-15 03:45:00,
2013-04-14 23:50:00,42.7,37.3,29.86,East,96,7.0,10.0,81,0.08,,---,0.05,VWS V14.01,2013-04-15 03:50:00,
2013-04-14 23:55:00,42.6,37.2,29.86,ESE,105,1.0,6.0,81,0.08,,---,0.05,VWS V14.01,2013-04-15 03:55:00,